QPF
0.00 0.00 0.00 0.00 0.00 0.00 0.00 0.00 0.00 0.00 0.00 0.00 0.00 0.00 0.00 0.00 0.00 0.00 0.00 0.00 0.00 0.00 0.00 0.00 0.00 0.00 0.00 0.00 0.00 0.00 0.00 0.00 0.00 0.00 0.00 0.00 0.00 0.00 0.00 0.00 0.00 0.00 0.00
0.00 0.00 0.00 0.00 0.00 0.00 0.00 0.00 0.00 0.00 0.00 0.00 0.00 0.00 0.00 0.00 0.00 0.00 0.00 0.00 0.00 0.00 0.00 0.00 0.00 0.00 0.00 0.00 0.00 0.00 0.00 0.00 0.00 0.00 0.00 0.00 0.00 0.00 0.00 0.00 0.00 0.00 0.00
0.00 0.00 0.00 0.00 0.00 0.00 0.00 0.00 0.00 0.00 0.00 0.00 0.00 0.00 0.00 0.00 0.00 0.00 0.00 0.00 0.00 0.00 0.00 0.00 0.00 0.00 0.00 0.00 0.00 0.00 0.00 0.00 0.00 0.00 0.00 0.00 0.00 0.00 0.00 0.00 0.00 0.00 0.00
0.00 0.00 0.00 0.00 0.00 0.00 0.00 0.00 0.00 0.00 0.00 0.00 0.00 0.00 0.00 0.00 0.00 0.00 0.00 0.00 0.00 0.00 0.00 0.00 0.00 0.00 0.00 0.00 0.00 0.00 0.00 0.00 0.00 0.00 0.00 0.00 0.00 0.00 0.00 0.00 0.00 0.00 0.00
0.00 0.00 0.00 0.00 0.00 0.00 0.00 0.00 0.00 0.00 0.00 0.00 0.00 0.00 0.00 0.00 0.00 0.00 0.00 0.00 0.00 0.00 0.00 0.00 0.00 0.00 0.00 0.00 0.00 0.00 0.00 0.00 0.00 0.00 0.00 0.00 0.00 0.00 0.00 0.00 0.00 0.00 0.00
0.00 0.00 0.00 0.00 0.00 0.00 0.00 0.00 0.00 0.00 0.00 0.00 0.00 0.00 0.00 0.00 0.00 0.00 0.00 0.00 0.00 0.00 0.00 0.00 0.00 0.00 0.00 0.00 0.00 0.00 0.00 0.00 0.00 0.00 0.00 0.00 0.00 0.00 0.00 0.00 0.00 0.00 0.00
0.00 0.00 0.00 0.00 0.00 0.00 0.00 0.00 0.00 0.00 0.00 0.00 0.00 0.00 0.00 0.00 0.00 0.00 0.00 0.00 0.00 0.00 0.00 0.00 0.00 0.00 0.00 0.00 0.00 0.00 0.00 0.00 0.00 0.00 0.00 0.00 0.00 0.00 0.00 0.00 0.00 0.00 0.00
0.00 0.00 0.00 0.00 0.00 0.00 0.00 0.00 0.00 0.00 0.00 0.00 0.00 0.00 0.00 0.00 0.00 0.00 0.00 0.00 0.00 0.00 0.00 0.00 0.00 0.00 0.00 0.00 0.00 0.00 0.00 0.00 0.00 0.00 0.00 0.00 0.00 0.00 0.00 0.00 0.00 0.00 0.00
0.00 0.00 0.00 0.00 0.00 0.00 0.00 0.00 0.00 0.00 0.00 0.00 0.00 0.00 0.00 0.00 0.00 0.00 0.00 0.00 0.00 0.00 0.00 0.00 0.00 0.00 0.00 0.00 0.00 0.00 0.00 0.00 0.00 0.00 0.00 0.00 0.00 0.00 0.00 0.00 0.00 0.00 0.00
0.00 0.00 0.00 0.00 0.00 0.00 0.00 0.00 0.00 0.00 0.00 0.00 0.00 0.00 0.00 0.00 0.00 0.00 0.00 0.00 0.00 0.00 0.00 0.00 0.00 0.00 0.00 0.00 0.00 0.00 0.00 0.00 0.00 0.00 0.00 0.00 0.00 0.00 0.00 0.00 0.00 0.00 0.00
0.00 0.00 0.00 0.00 0.00 0.00 0.00 0.00 0.00 0.00 0.00 0.00 0.00 0.00 0.00 0.00 0.00 0.00 0.00 0.00 0.00 0.00 0.00 0.00 0.00 0.00 0.00 0.00 0.00 0.00 0.00 0.00 0.00 0.00 0.00 0.00 0.00 0.00 0.00 0.00 0.00 0.00 0.00
0.00 0.00 0.00 0.00 0.00 0.00 0.00 0.00 0.00 0.00 0.00 0.00 0.00 0.00 0.00 0.00 0.00 0.00 0.00 0.00 0.00 0.00 0.00 0.00 0.00 0.00 0.00 0.00 0.00 0.00 0.00 0.00 0.00 0.00 0.00 0.00 0.00 0.00 0.00 0.00 0.00 0.00 0.00
0.00 0.00 0.00 0.00 0.00 0.00 0.00 0.00 0.00 0.00 0.00 0.00 0.00 0.00 0.00 0.00 0.00 0.00 0.00 0.00 0.00 0.00 0.00 0.00 0.00 0.00 0.00 0.00 0.00 0.00 0.00 0.00 0.00 0.00 0.00 0.00 0.00 0.00 0.00 0.00 0.00 0.00 0.00
0.00 0.00 0.00 0.00 0.00 0.00 0.00 0.00 0.00 0.00 0.00 0.00 0.00 0.00 0.00 0.00 0.00 0.00 0.00 0.00 0.00 0.00 0.00 0.00 0.00 0.00 0.00 0.00 0.00 0.00 0.00 0.00 0.00 0.00 0.00 0.00 0.00 0.00 0.00 0.00 0.00 0.00 0.00
0.00 0.00 0.00 0.00 0.00 0.00 0.00 0.00 0.00 0.00 0.00 0.00 0.00 0.00 0.00 0.00 0.00 0.00 0.00 0.00 0.00 0.00 0.00 0.00 0.00 0.00 0.00 0.00 0.00 0.00 0.00 0.00 0.00 0.00 0.00 0.00 0.00 0.00 0.00 0.00 0.00 0.00 0.00
0.00 0.00 0.00 0.00 0.00 0.00 0.00 0.00 0.00 0.00 0.00 0.00 0.00 0.00 0.00 0.00 0.00 0.00 0.00 0.00 0.00 0.00 0.00 0.00 0.00 0.00 0.00 0.00 0.00 0.00 0.00 0.00 0.00 0.00 0.00 0.00 0.00 0.00 0.00 0.00 0.00 0.00 0.00
0.00 0.00 0.00 0.00 0.00 0.00 0.00 0.00 0.00 0.00 0.00 0.00 0.00 0.00 0.00 0.00 0.00 0.00 0.00 0.00 0.00 0.00 0.00 0.00 0.00 0.00 0.00 0.00 0.00 0.00 0.00 0.00 0.00 0.00 0.00 0.00 0.00 0.00 0.00 0.00 0.00 0.00 0.00
0.00 0.00 0.00 0.00 0.00 0.00 0.00 0.00 0.00 0.00 0.00 0.00 0.00 0.00 0.00 0.00 0.00 0.00 0.00 0.00 0.00 0.00 0.00 0.00 0.00 0.00 0.00 0.00 0.00 0.00 0.00 0.00 0.00 0.00 0.00 0.00 0.00 0.00 0.00 0.00 0.00 0.00 0.00
0.00 0.00 0.00 0.00 0.00 0.00 0.00 0.00 0.00 0.00 0.00 0.00 0.00 0.00 0.00 0.00 0.00 0.00 0.00 0.00 0.00 0.00 0.00 0.00 0.00 0.00 0.00 0.00 0.00 0.00 0.00 0.00 0.00 0.00 0.00 0.00 0.00 0.00 0.00 0.00 0.00 0.00 0.00
0.00 0.00 0.00 0.00 0.00 0.00 0.00 0.00 0.00 0.00 0.00 0.00 0.00 0.00 0.00 0.00 0.00 0.00 0.00 0.00 0.00 0.00 0.00 0.00 0.00 0.00 0.00 0.00 0.00 0.00 0.00 0.00 0.00 0.00 0.00 0.00 0.00 0.00 0.00 0.00 0.00 0.00 0.00
0.00 0.00 0.00 0.00 0.00 0.00 0.00 0.00 0.00 0.00 0.00 0.00 0.00 0.00 0.00 0.00 0.00 0.00 0.00 0.00 0.00 0.00 0.00 0.00 0.00 0.00 0.00 0.00 0.00 0.00 0.00 0.00 0.00 0.00 0.00 0.00 0.00 0.00 0.00 0.00 0.00 0.00 0.00
0.00 0.00 0.00 0.00 0.00 0.00 0.00 0.00 0.00 0.00 0.00 0.00 0.00 0.00 0.00 0.00 0.00 0.00 0.00 0.00 0.00 0.00 0.00 0.00 0.00 0.00 0.00 0.00 0.00 0.00 0.00 0.00 0.00 0.00 0.00 0.00 0.00 0.00 0.00 0.00 0.01 0.01 0.01
0.00 0.00 0.00 0.00 0.00 0.00 0.00 0.00 0.00 0.00 0.00 0.00 0.00 0.00 0.00 0.00 0.00 0.00 0.00 0.00 0.00 0.00 0.00 0.00 0.00 0.00 0.00 0.00 0.00 0.00 0.00 0.00 0.00 0.00 0.00 0.00 0.00 0.00 0.00 0.01 0.01 0.01 0.01
0.00 0.00 0.00 0.00 0.00 0.00 0.00 0.00 0.00 0.00 0.00 0.00 0.00 0.00 0.00 0.00 0.00 0.00 0.00 0.00 0.00 0.00 0.00 0.00 0.00 0.00 0.00 0.00 0.00 0.00 0.00 0.00 0.00 0.00 0.00 0.00 0.00 0.00 0.00 0.00 0.00 0.00 0.00
0.00 0.00 0.00 0.00 0.00 0.00 0.00 0.00 0.00 0.00 0.00 0.00 0.00 0.00 0.00 0.00 0.00 0.00 0.00 0.00 0.00 0.00 0.00 0.00 0.00 0.00 0.00 0.00 0.00 0.00 0.01 0.01 0.02 0.02 0.01 0.00 0.00 0.00 0.00 0.00 0.00 0.00 0.00
0.00 0.00 0.00 0.00 0.00 0.00 0.00 0.00 0.00 0.00 0.00 0.00 0.00 0.00 0.00 0.00 0.00 0.00 0.00 0.00 0.00 0.00 0.00 0.00 0.00 0.00 0.00 0.00 0.00 0.00 0.00 0.00 0.03 0.02 0.00 0.00 0.01 0.00 0.00 0.00 0.00 0.00 0.00
MSLP
1029.32 1029.82 1029.91 1030.39 1030.60 1030.63 1030.87 1030.96 1030.91 1030.88 1030.62 1030.36 1030.30 1030.56 1031.01 1031.23 1031.33 1031.36 1031.77 1031.93 1031.71 1031.02 1030.69 1030.23 1029.87 1029.56 1029.42 1029.39 1028.91 1028.25 1027.93 1028.08 1027.77 1027.19 1027.08 1026.91 1027.14 1027.15 1027.18 1027.29 1027.63 1027.62 1027.67
1029.03 1029.62 1030.00 1030.34 1030.80 1030.89 1031.17 1031.57 1031.29 1031.44 1031.33 1031.02 1031.09 1031.13 1031.56 1032.04 1032.21 1031.95 1032.59 1032.65 1032.56 1031.98 1031.49 1031.32 1030.91 1030.69 1030.49 1030.24 1029.86 1029.50 1029.20 1028.98 1028.91 1028.89 1028.41 1028.10 1027.97 1027.78 1027.64 1027.93 1028.22 1028.60 1028.51
1028.26 1029.23 1029.83 1030.51 1030.93 1031.35 1031.63 1031.95 1031.99 1032.09 1031.90 1031.48 1031.38 1031.40 1031.75 1032.24 1032.45 1032.59 1033.16 1033.41 1033.22 1032.76 1032.33 1032.01 1031.72 1031.51 1031.31 1031.24 1030.98 1030.71 1030.50 1030.29 1030.07 1029.92 1029.88 1029.45 1029.37 1028.82 1028.30 1028.98 1029.12 1029.51 1029.49
1027.66 1028.74 1029.79 1030.56 1031.07 1031.99 1032.10 1032.39 1032.54 1032.48 1032.46 1031.95 1031.86 1031.83 1032.42 1032.79 1033.58 1033.40 1033.73 1033.81 1033.67 1033.37 1033.10 1032.78 1032.54 1032.35 1032.16 1032.15 1031.95 1031.67 1031.40 1031.08 1031.26 1030.86 1030.99 1030.85 1030.94 1030.65 1029.96 1029.80 1030.11 1030.07 1030.48
1026.95 1028.26 1029.40 1030.60 1031.57 1032.04 1032.28 1032.66 1033.09 1032.83 1032.90 1032.45 1032.53 1032.69 1033.18 1033.48 1033.83 1033.71 1033.90 1034.09 1034.18 1034.06 1033.79 1033.60 1033.45 1033.28 1033.10 1033.12 1032.98 1032.76 1032.43 1032.32 1032.28 1032.40 1032.26 1031.94 1031.78 1031.92 1031.80 1031.39 1031.52 1031.26 1031.43
1026.73 1028.27 1029.74 1030.93 1031.74 1032.14 1032.67 1032.97 1033.22 1033.19 1033.08 1032.99 1033.10 1033.23 1033.46 1033.77 1033.84 1033.98 1034.22 1034.54 1034.74 1034.76 1034.63 1034.40 1034.35 1034.25 1034.19 1034.08 1034.01 1033.88 1033.68 1033.60 1033.55 1033.52 1033.44 1033.46 1033.53 1033.68 1033.55 1033.42 1033.29 1033.28 1032.33
1026.83 1028.53 1029.96 1031.06 1031.92 1032.29 1032.73 1033.16 1033.44 1033.52 1033.59 1033.61 1033.70 1033.70 1033.93 1034.17 1034.46 1034.57 1034.83 1035.22 1035.47 1035.53 1035.50 1035.37 1035.47 1035.26 1035.15 1034.90 1034.78 1034.79 1034.77 1034.80 1034.84 1034.85 1034.73 1034.71 1034.82 1034.81 1034.69 1034.60 1034.63 1034.26 1033.18
1026.85 1028.81 1030.21 1031.17 1031.79 1032.34 1032.93 1033.45 1033.73 1034.07 1034.23 1034.27 1034.30 1034.32 1034.53 1034.80 1035.05 1035.32 1035.67 1036.02 1036.19 1036.46 1036.44 1036.35 1036.26 1036.11 1035.85 1035.61 1035.48 1035.55 1035.44 1035.58 1035.72 1035.74 1035.64 1035.67 1035.75 1035.70 1035.67 1035.66 1035.59 1035.10 1034.15
1026.91 1028.73 1030.16 1031.26 1032.04 1032.62 1033.09 1033.73 1034.14 1034.57 1034.77 1034.98 1035.09 1035.26 1035.51 1035.81 1036.11 1036.47 1036.68 1037.07 1037.13 1036.96 1037.24 1037.07 1036.93 1036.83 1036.64 1036.40 1036.23 1036.34 1036.34 1036.21 1036.24 1036.34 1036.33 1036.35 1036.41 1036.27 1036.16 1036.10 1036.01 1036.00 1035.70
1027.15 1028.95 1030.40 1031.50 1032.33 1033.10 1033.86 1034.39 1034.75 1035.19 1035.46 1035.82 1035.97 1036.32 1036.53 1036.88 1037.26 1037.53 1037.77 1037.92 1037.98 1037.91 1037.90 1037.81 1037.75 1037.64 1037.49 1037.31 1037.14 1037.14 1037.05 1037.02 1036.96 1037.00 1037.06 1037.05 1037.04 1036.89 1036.67 1036.47 1036.41 1036.33 1036.40
1027.48 1029.20 1030.75 1032.00 1033.00 1033.80 1034.46 1035.03 1035.54 1035.89 1036.18 1036.55 1036.93 1037.25 1037.45 1037.69 1038.01 1038.26 1038.45 1038.46 1038.57 1038.61 1038.59 1038.60 1038.57 1038.55 1038.48 1038.21 1038.01 1037.82 1037.77 1037.80 1037.80 1037.74 1037.77 1037.68 1037.52 1037.55 1037.27 1036.95 1036.79 1036.67 1036.57
1028.05 1029.73 1031.30 1032.60 1033.61 1034.44 1035.15 1035.72 1036.19 1036.52 1036.84 1037.23 1037.51 1037.77 1037.88 1038.29 1038.62 1038.85 1038.99 1039.08 1039.23 1039.23 1039.27 1039.30 1039.34 1039.33 1039.21 1039.05 1038.82 1038.59 1038.40 1038.32 1038.30 1038.30 1038.27 1038.26 1037.81 1037.87 1037.60 1037.42 1037.16 1036.88 1036.56
1028.73 1030.45 1032.03 1033.32 1034.33 1035.03 1035.71 1036.32 1036.83 1037.25 1037.59 1037.83 1038.00 1038.29 1038.62 1038.96 1039.21 1039.38 1039.49 1039.58 1039.75 1039.82 1039.91 1039.94 1040.07 1040.00 1039.84 1039.70 1039.40 1039.08 1038.93 1038.73 1038.63 1038.57 1038.57 1038.53 1038.41 1038.18 1037.95 1037.68 1037.32 1036.96 1036.56
1029.28 1031.07 1032.70 1033.97 1034.97 1035.68 1036.38 1037.06 1037.62 1037.93 1038.14 1038.24 1038.45 1038.84 1039.31 1039.61 1039.68 1039.77 1039.89 1040.00 1040.11 1040.18 1040.34 1040.52 1040.57 1040.45 1040.35 1040.02 1039.66 1039.30 1039.29 1039.18 1038.81 1038.60 1038.61 1038.65 1038.59 1038.41 1038.12 1037.73 1037.45 1037.01 1036.72
1029.97 1031.73 1033.25 1034.43 1035.53 1036.31 1036.99 1037.65 1038.04 1038.33 1038.51 1038.63 1038.88 1039.26 1039.64 1039.80 1039.99 1040.09 1040.17 1040.21 1040.24 1040.37 1040.48 1040.61 1040.74 1040.80 1040.63 1039.96 1039.97 1039.56 1039.54 1039.50 1039.17 1038.77 1038.43 1038.32 1038.15 1037.58 1037.30 1036.98 1037.01 1036.97 1036.69
1030.29 1032.32 1033.80 1034.89 1035.70 1036.41 1037.10 1037.70 1038.18 1038.53 1038.72 1038.91 1039.15 1039.39 1039.52 1039.60 1039.78 1039.96 1040.13 1040.20 1040.31 1040.45 1040.68 1040.89 1040.88 1041.00 1040.43 1039.63 1038.83 1038.51 1039.41 1039.04 1039.36 1039.20 1038.73 1038.45 1037.83 1037.81 1037.19 1036.71 1036.30 1036.10 1036.03
1030.55 1032.12 1033.67 1034.87 1035.66 1036.24 1036.79 1037.53 1038.02 1038.48 1038.73 1038.93 1039.09 1039.21 1039.35 1039.48 1039.60 1039.72 1039.91 1040.15 1040.29 1040.43 1040.44 1040.57 1040.61 1040.53 1040.50 1039.26 1038.50 1038.01 1038.38 1038.86 1039.13 1038.82 1038.43 1038.13 1037.52 1037.22 1037.53 1037.04 1036.54 1036.29 1035.99
1031.01 1032.48 1033.71 1034.81 1035.73 1036.26 1036.85 1037.50 1038.04 1038.32 1038.66 1038.85 1038.93 1039.07 1039.21 1039.38 1039.50 1039.62 1039.82 1039.99 1040.02 1040.12 1040.06 1040.26 1040.03 1039.97 1039.61 1038.52 1037.97 1037.57 1038.01 1038.44 1038.40 1038.21 1038.10 1037.98 1037.52 1037.24 1036.89 1036.73 1036.61 1036.38 1036.00
1031.61 1032.85 1033.98 1034.88 1035.90 1036.64 1037.19 1037.61 1038.05 1038.24 1038.56 1038.75 1038.83 1038.91 1039.06 1039.23 1039.42 1039.60 1039.69 1039.89 1039.93 1039.88 1039.84 1039.41 1039.63 1039.76 1039.29 1038.33 1037.77 1037.33 1037.61 1037.49 1037.68 1037.29 1037.19 1037.05 1036.64 1035.95 1035.26 1035.14 1035.18 1035.02 1034.76
1032.22 1033.36 1034.49 1035.44 1036.26 1036.90 1037.35 1037.61 1037.92 1038.17 1038.37 1038.52 1038.58 1038.59 1038.72 1038.98 1039.24 1039.39 1039.50 1039.53 1039.73 1039.35 1039.11 1038.90 1039.09 1038.87 1038.80 1038.21 1037.59 1037.11 1036.97 1036.87 1036.77 1036.61 1036.12 1035.57 1035.05 1034.41 1033.80 1033.59 1033.67 1033.78 1033.63
1033.03 1034.10 1034.93 1035.68 1036.43 1036.94 1037.30 1037.53 1037.76 1037.89 1038.00 1038.22 1038.41 1038.46 1038.44 1038.69 1038.96 1039.19 1039.37 1039.46 1039.43 1039.22 1039.17 1039.00 1038.99 1038.80 1038.53 1038.30 1037.28 1036.70 1036.39 1036.25 1035.97 1035.68 1035.42 1035.07 1034.58 1033.94 1033.29 1032.64 1032.53 1032.41 1032.30
1033.55 1034.44 1035.13 1035.94 1036.60 1037.01 1037.18 1037.39 1037.56 1037.83 1038.14 1038.33 1038.43 1038.52 1038.66 1038.71 1038.78 1039.11 1039.28 1039.29 1039.27 1039.23 1039.14 1039.00 1038.83 1038.55 1038.38 1037.75 1037.27 1036.57 1035.93 1035.43 1035.13 1035.09 1034.92 1034.62 1033.95 1033.15 1032.47 1031.90 1031.47 1030.80 1030.52
1033.93 1034.70 1035.26 1035.98 1036.66 1037.04 1037.17 1037.40 1037.82 1038.04 1038.26 1038.42 1038.60 1038.82 1038.99 1038.99 1039.02 1039.06 1039.22 1039.30 1039.37 1039.37 1039.36 1039.14 1038.87 1038.45 1038.04 1037.81 1037.13 1036.45 1035.87 1035.29 1034.78 1034.41 1033.81 1032.89 1032.33 1031.83 1031.61 1031.50 1030.93 1030.46 1030.31
1034.23 1034.83 1035.41 1036.06 1036.69 1037.12 1037.32 1037.69 1037.97 1038.28 1038.51 1038.78 1039.09 1039.25 1039.36 1039.31 1039.48 1039.29 1039.32 1039.33 1039.33 1039.30 1038.91 1038.58 1038.25 1037.92 1037.60 1037.27 1036.80 1036.13 1035.65 1035.10 1034.52 1033.99 1033.41 1032.80 1032.16 1031.65 1031.41 1031.14 1030.86 1030.53 1030.14
1034.59 1035.07 1035.61 1036.22 1036.79 1037.25 1037.71 1038.04 1038.43 1038.75 1039.02 1039.28 1039.46 1039.61 1039.64 1039.61 1039.49 1039.33 1039.34 1039.02 1039.06 1038.37 1037.71 1037.54 1037.41 1037.25 1036.90 1036.46 1035.41 1034.77 1034.60 1034.25 1033.62 1032.59 1032.68 1032.61 1032.21 1031.74 1031.20 1030.70 1030.32 1030.01 1029.64
1035.05 1035.53 1036.00 1036.63 1037.29 1037.81 1038.29 1038.68 1039.00 1039.27 1039.50 1039.59 1039.71 1039.73 1039.64 1039.57 1039.47 1039.35 1039.20 1038.69 1038.17 1037.55 1037.13 1036.73 1036.41 1036.27 1035.80 1035.28 1034.76 1034.38 1033.92 1033.40 1032.78 1033.22 1033.52 1033.40 1033.03 1032.49 1031.85 1031.40 1030.84 1030.06 1029.49
Thickness
5490 5491 5496 5497 5499 5502 5503 5504 5507 5509 5514 5517 5520 5521 5521 5523 5527 5531 5529 5529 5532 5540 5545 5549 5554 5557 5559 5560 5565 5572 5575 5575 5578 5584 5585 5588 5585 5585 5586 5586 5584 5584 5584
5483 5485 5487 5491 5491 5493 5494 5493 5498 5499 5501 5506 5508 5511 5510 5511 5513 5521 5517 5518 5520 5528 5533 5536 5541 5544 5546 5549 5553 5557 5560 5563 5564 5563 5569 5575 5576 5576 5578 5576 5573 5571 5572
5483 5481 5482 5482 5483 5482 5483 5484 5486 5487 5491 5496 5499 5501 5502 5502 5504 5508 5506 5505 5509 5515 5520 5524 5527 5531 5534 5536 5539 5542 5544 5546 5549 5550 5550 5556 5558 5561 5568 5562 5560 5558 5558
5481 5478 5476 5473 5473 5469 5472 5473 5475 5478 5480 5486 5489 5492 5489 5490 5488 5494 5493 5495 5498 5503 5507 5511 5514 5517 5520 5522 5524 5527 5531 5534 5533 5537 5537 5539 5537 5537 5550 5552 5547 5545 5544
5478 5473 5470 5463 5460 5461 5463 5463 5463 5468 5469 5475 5477 5478 5476 5478 5479 5483 5484 5484 5486 5489 5493 5497 5500 5503 5506 5507 5509 5512 5516 5518 5519 5519 5520 5523 5524 5523 5525 5530 5527 5528 5527
5468 5462 5456 5452 5450 5452 5452 5453 5454 5457 5460 5463 5465 5466 5467 5468 5471 5473 5474 5473 5473 5476 5479 5482 5485 5488 5490 5492 5494 5495 5498 5501 5502 5502 5503 5503 5503 5502 5502 5504 5504 5502 5512
5459 5449 5445 5442 5440 5443 5445 5444 5445 5447 5449 5451 5452 5455 5456 5457 5457 5459 5460 5459 5460 5462 5464 5467 5469 5472 5474 5477 5478 5480 5481 5482 5483 5483 5484 5485 5484 5485 5486 5486 5485 5486 5494
5450 5439 5434 5432 5434 5436 5435 5434 5435 5435 5436 5438 5440 5442 5442 5443 5443 5444 5444 5444 5445 5446 5449 5451 5454 5456 5460 5462 5464 5464 5466 5466 5466 5467 5468 5467 5467 5468 5468 5468 5468 5471 5479
5439 5431 5424 5422 5421 5421 5424 5422 5422 5422 5423 5424 5426 5427 5427 5427 5428 5427 5429 5429 5431 5432 5433 5436 5439 5441 5444 5446 5448 5448 5449 5450 5451 5451 5451 5451 5451 5452 5452 5453 5454 5454 5454
5430 5422 5415 5411 5409 5408 5406 5406 5408 5408 5409 5409 5410 5411 5413 5412 5412 5412 5413 5414 5416 5418 5419 5421 5423 5425 5427 5429 5430 5431 5432 5432 5433 5432 5433 5433 5433 5434 5436 5436 5436 5437 5436
5420 5412 5404 5398 5395 5393 5392 5392 5392 5393 5394 5395 5395 5396 5397 5398 5398 5398 5399 5401 5401 5403 5404 5406 5407 5408 5409 5411 5412 5413 5413 5414 5413 5414 5414 5414 5414 5415 5416 5417 5417 5417 5418
5408 5399 5391 5385 5382 5381 5380 5379 5379 5380 5381 5381 5382 5383 5384 5384 5384 5385 5385 5386 5387 5388 5389 5389 5390 5391 5392 5393 5394 5395 5395 5395 5395 5395 5395 5394 5395 5395 5396 5396 5396 5398 5399
5395 5386 5378 5372 5369 5367 5366 5366 5366 5366 5367 5368 5370 5370 5370 5370 5370 5371 5371 5371 5372 5373 5373 5373 5373 5374 5375 5375 5376 5376 5376 5376 5376 5376 5375 5375 5375 5375 5375 5375 5376 5378 5380
5384 5372 5363 5357 5354 5353 5352 5352 5351 5352 5354 5356 5357 5356 5356 5356 5357 5357 5357 5358 5358 5358 5357 5356 5356 5356 5356 5357 5358 5358 5358 5358 5358 5357 5356 5355 5354 5353 5353 5353 5353 5356 5356
5371 5362 5352 5345 5341 5339 5339 5338 5339 5340 5342 5343 5343 5343 5344 5344 5344 5344 5343 5343 5343 5343 5341 5340 5340 5339 5340 5341 5342 5342 5341 5340 5340 5339 5338 5336 5335 5336 5336 5336 5334 5333 5332
5361 5349 5342 5336 5333 5331 5330 5330 5329 5329 5330 5331 5331 5331 5331 5331 5330 5330 5329 5329 5329 5328 5326 5325 5324 5324 5323 5324 5325 5327 5325 5323 5321 5320 5320 5318 5316 5314 5313 5313 5314 5313 5310
5349 5341 5334 5329 5327 5326 5325 5322 5321 5320 5320 5319 5319 5320 5320 5319 5319 5317 5316 5315 5314 5314 5312 5310 5309 5308 5307 5307 5309 5310 5310 5307 5304 5301 5299 5298 5295 5292 5290 5288 5287 5286 5284
5337 5330 5325 5321 5318 5316 5314 5311 5310 5309 5308 5308 5308 5308 5307 5306 5306 5305 5304 5303 5302 5301 5299 5297 5296 5294 5292 5292 5292 5292 5292 5288 5284 5281 5279 5277 5274 5270 5268 5267 5265 5263 5260
5323 5318 5313 5310 5304 5301 5300 5299 5297 5297 5296 5295 5295 5295 5294 5293 5292 5291 5290 5290 5288 5286 5284 5283 5281 5277 5274 5272 5272 5271 5269 5267 5263 5260 5258 5255 5253 5248 5246 5246 5245 5243 5239
5307 5302 5297 5293 5290 5288 5287 5287 5286 5286 5285 5285 5284 5284 5283 5282 5279 5278 5276 5275 5273 5271 5268 5266 5262 5259 5256 5253 5251 5248 5247 5245 5241 5237 5235 5231 5228 5225 5224 5221 5218 5215 5211
5289 5284 5282 5280 5277 5276 5276 5276 5276 5276 5276 5275 5273 5272 5272 5270 5267 5264 5261 5258 5255 5253 5250 5248 5244 5240 5236 5232 5229 5226 5222 5218 5216 5214 5211 5206 5199 5197 5195 5192 5189 5188 5183
5276 5273 5271 5267 5265 5264 5265 5266 5265 5263 5262 5261 5261 5259 5257 5255 5253 5249 5245 5242 5238 5235 5230 5227 5223 5219 5214 5208 5204 5199 5194 5190 5188 5184 5180 5175 5171 5169 5167 5163 5159 5158 5153
5264 5262 5260 5257 5254 5253 5253 5253 5250 5250 5249 5248 5247 5244 5241 5239 5236 5233 5229 5225 5219 5213 5208 5205 5200 5195 5189 5183 5176 5171 5165 5160 5156 5152 5148 5147 5145 5142 5139 5133 5128 5123 5118
5251 5251 5249 5245 5242 5240 5241 5239 5238 5237 5236 5234 5231 5228 5226 5224 5219 5216 5212 5206 5198 5191 5188 5182 5177 5171 5163 5155 5147 5142 5136 5129 5123 5118 5115 5113 5111 5109 5104 5100 5095 5089 5086
5239 5239 5237 5234 5232 5230 5228 5227 5225 5223 5221 5219 5217 5214 5211 5207 5203 5199 5192 5187 5181 5174 5169 5163 5155 5147 5137 5129 5124 5118 5110 5103 5097 5093 5089 5084 5080 5077 5072 5068 5065 5061 5059
5226 5225 5225 5222 5219 5217 5215 5213 5212 5210 5208 5206 5203 5199 5196 5192 5187 5180 5170 5163 5158 5152 5145 5139 5130 5121 5112 5103 5096 5088 5082 5076 5069 5061 5050 5046 5042 5041 5040 5038 5038 5038 5036